Regional Weather Roundup
Issued by NWS

Home | Current Version | Previous Version | Graphics & Text | Print | Product List | Glossary On
Versions: 1 2 3 4 5 6 7 8 9 10 11 12 13 14 15 16 17 18 19 20 21 22 23 24 25 26 27 28 29 30 31 32 33 34 35 36 37 38 39 40 41 42 43 44 45 46 47 48 49 50
294
ASUS44 KLIX 250010
RWRLA
LOUISIANA WEATHER ROUNDUP
NATIONAL WEATHER SERVICE NEW ORLEANS LA
700 PM CDT THU APR 24 2014

NOTE: "FAIR" INDICATES FEW OR NO CLOUDS BELOW 12,000 FEET WITH NO
      SIGNIFICANT WEATHER AND/OR OBSTRUCTIONS TO VISIBILITY.
      SKY/WX - SKY CONDITION AND SIGNIFICANT WEATHER.
      TMP - AIR TEMPERATURE.    DP   - DEWPOINT TEMPERATURE.
      RH  - RELATIVE HUMIDITY.  PRES - PRESSURE.
      HX  - HEAT INDEX.         WCI  - WIND CHILL INDEX.

*  THESE STATIONS ARE NOT NWS OR FAA STATIONS AND ARE NOT UNDER
   NWS QUALITY CONTROL.

LAZ040-048-061>063-065-066-069-250100-
SOUTHEAST LOUISIANA

CITY           SKY/WX    TMP DP  RH WIND       PRES   REMARKS
N.O. AUDUBON     N/A     76  67  73 MISG        N/A
6HR MIN TEMP:  76; 6HR MAX TEMP:  87;

N.O. INTL ARPT MOCLDY    76  65  68 S12       29.89R
6HR MIN TEMP:  76; 6HR MAX TEMP:  83;

N.O. LAKEFRONT CLEAR     75  65  70 S15       29.90R
6HR MIN TEMP:  75; 6HR MAX TEMP:  82;

N.O. DOWNTOWN* MOCLDY    79  63  57 S10       29.90R
6HR MIN TEMP:  77; 6HR MAX TEMP:  84;

SLIDELL        PTCLDY    76  65  68 S10       29.88R
6HR MIN TEMP:  76; 6HR MAX TEMP:  82;

BATON ROUGE    PTCLDY    78  64  61 SW12      29.86F
6HR MIN TEMP:  78; 6HR MAX TEMP:  85;

BOOTHVILLE     PTCLDY    73  68  84 S12G21    29.89F
6HR MIN TEMP:  73; 6HR MAX TEMP:  76;

BELLE CHASSE   MOCLDY    75  65  70 S13       29.90R
6HR MIN TEMP:  75; 6HR MAX TEMP:  81;

BOGALUSA*        N/A     78  65  62 S10       29.89R
6HR MIN TEMP:  78; 6HR MAX TEMP:  85;

GALLIANO*      CLOUDY    76  66  71 S12G20    29.91R
6HR MIN TEMP:  76; 6HR MAX TEMP:  82;

NEW ROADS*     FAIR      77  64  63 S10G26    29.85F
6HR MIN TEMP:  77; 6HR MAX TEMP:  82;

GONZALES*      MOCLDY    77  66  68 SW6       29.88R
6HR MIN TEMP:  77; 6HR MAX TEMP:  83;

HAMMOND*       MOCLDY    79  63  57 S14       29.88S
HOUMA*         MOCLDY    75  64  69 S8        29.91R
PORT FOURCHON* PTCLDY    75  68  78 S10G18    29.92R

$$

LAZ041-044-053-054-250100-
SOUTHWEST LOUISIANA

CITY           SKY/WX    TMP DP  RH WIND       PRES   REMARKS
LAKE CHARLES   CLOUDY    74  67  78 S9        29.87S
6HR MIN TEMP:  74; 6HR MAX TEMP:  80;

LAFAYETTE      CLEAR     75  66  73 S13       29.87F
6HR MIN TEMP:  75; 6HR MAX TEMP:  80;

PATTERSON      MOCLDY    73  66  78 SW10      29.94R
6HR MIN TEMP:  73; 6HR MAX TEMP:  81;

SALT POINT       N/A     76  68  76 CALM      29.90R
6HR MIN TEMP:  76; 6HR MAX TEMP:  80;

NEW IBERIA     CLEAR     75  65  70 S16       29.89F
6HR MIN TEMP:  75; 6HR MAX TEMP:  83;

CHENAULT AIRPK CLOUDY    75  66  73 S15       29.88R

$$

LAZ027-028-250100-
CENTRAL LOUISIANA

CITY           SKY/WX    TMP DP  RH WIND       PRES   REMARKS
FORT POLK      CLOUDY    75  65  70 SW13G18   29.84R
6HR MIN TEMP:  75; 6HR MAX TEMP:  82;

ALEXANDRIA INT CLOUDY    78  65  63 SW13      29.81S
6HR MIN TEMP:  78; 6HR MAX TEMP:  84;

ALEXANDRIA     CLOUDY    79  64  60 SW9       29.82S
6HR MIN TEMP:  79; 6HR MAX TEMP:  84;


$$

LAZ001-002-250100-
NORTHWEST LOUISIANA

CITY           SKY/WX    TMP DP  RH WIND       PRES   REMARKS
SHREVEPORT     PTCLDY    78  65  63 SW8       29.78R
6HR MIN TEMP:  75; 6HR MAX TEMP:  81; 6HR PCP: TRACE;

BARKSDALE AFB  NOT AVBL
DTN SHREVEPORT PTCLDY    77  65  66 SW13      29.78R
6HR MIN TEMP:  75; 6HR MAX TEMP:  79; 6HR PCP: TRACE;


$$

LAZ014-016-250100-
NORTHEAST LOUISIANA

CITY           SKY/WX    TMP DP  RH WIND       PRES   REMARKS
MONROE         CLOUDY    77  65  66 SW16G24   29.79R
6HR MIN TEMP:  77; 6HR MAX TEMP:  83;

TALLULAH       CLOUDY    80  64  58 S9G20     29.78R
6HR MIN TEMP:  80; 6HR MAX TEMP:  84;


$$




USA.gov is the U.S. government's official web portal to all federal, state and local government web resources and services.